Volver al catálogo

STARLINK-37422

ActivoComunicacionesVLEO
NORAD 69191·PAYLOAD·🇺🇸 United States

Lanzado May 25, 2026 desde Cape Canaveral Space Force Station

Loading…

Próximos Pases (próximas 24 horas)

TLE

ActualizadoSource: CelesTrak SupGP

Época: Sep 14, 2026, 23:19 UTC

1 69191C 26114K   26257.97201389 -.00047254  00000+0 -13963-2 0  2575
2 69191  53.1560 139.7152 0001082  76.2398 344.9016 15.34411510    15

Sigue STARLINK-37422 en tiempo real con AllMySat

Download on the App Store